WXPETECO Weather Reports


Display with metric or nautical units.
time (UTC)temp
F
wind
direction
speed
MPH
gust
MPH
rain 1hr
in
rain 24hr
in
rain mn
in
humidity
%
barometer
mb
20260505011500 40 348 0.0 0.0 0.11 0.25 0.25 89 1008.2
20260505010114 40 348 0.0 1.0 0.13 0.23 0.23 88 1008.2
20260505004600 40 348 1.0 3.0 0.14 0.20 0.20 88 1008.1
20260505003119 41 304 0.0 1.0 0.13 0.17 0.17 87 1008.1
20260505001601 41 304 0.0 2.0 0.11 0.14 0.14 85 1007.9
20260504234556 44 313 1.0 5.0 0.03 0.06 0.06 75 1007.5
20260504233102 47 302 4.0 9.0 0.00 0.03 0.03 66 1007.1
20260504231554 49 154 1.0 4.0 0.00 0.03 0.03 62 1006.3
20260504230112 50 157 1.0 7.0 0.00 0.03 0.03 59 1006.1
20260504224607 51 132 2.0 9.0 0.00 0.03 0.03 55 1005.9
20260504223052 51 147 2.0 9.0 0.00 0.03 0.03 52 1005.2
20260504221551 52 131 2.0 8.0 0.00 0.03 0.03 51 1005.0
20260504220057 54 106 3.0 8.0 0.00 0.03 0.03 46 1004.8
20260504214550 55 155 1.0 11.0 0.00 0.03 0.03 46 1004.7
20260504213047 55 119 2.0 6.0 0.00 0.03 0.03 50 1004.6
20260504211544 53 154 2.0 10.0 0.00 0.03 0.03 54 1004.8
20260504210056 51 119 1.0 4.0 0.00 0.03 0.03 60 1005.0
20260504204548 50 169 0.0 1.0 0.00 0.03 0.03 68 1005.4
20260504203044 50 132 1.0 5.0 0.01 0.03 0.03 56 1005.7
20260504201546 49 13 1.0 5.0 0.02 0.03 0.03 64 1005.5
20260504200050 47 286 0.0 1.0 0.03 0.03 0.03 75 1005.7
20260504194538 48 300 2.0 7.0 0.03 0.03 0.03 79 1006.0
20260504193041 49 252 0.0 0.0 0.02 0.02 0.02 73 1006.1
20260504191537 49 252 0.0 2.0 0.01 0.01 0.01 68 1006.2
20260504190034 50 227 0.0 3.0 0.00 0.00 0.00 58 1006.0
20260504184537 49 228 0.0 1.0 0.00 0.00 0.00 62 1006.0
20260504183036 50 306 1.0 6.0 0.00 0.00 0.00 59 1006.2
20260504181531 52 303 4.0 20.0 0.00 0.00 0.00 43 1006.7
20260504180028 56 284 5.0 15.0 0.00 0.00 0.00 37 1006.2
20260504174527 56 265 3.0 8.0 0.00 0.00 0.00 37 1006.1
20260504173025 55 223 2.0 12.0 0.00 0.00 0.00 37 1006.3
20260504171523 54 246 1.0 13.0 0.00 0.00 0.00 38 1006.5
20260504081503 36 313 0.0 3.0 0.00 0.00 0.00 43 1008.0
20260504044537 41 319 0.0 2.0 0.00 0.00 0.00 40 1009.2
20260504043049 42 34 0.0 1.0 0.00 0.00 0.00 40 1009.2
20260504041537 43 318 0.0 2.0 0.00 0.00 0.00 40 1009.1
20260504040039 44 315 0.0 1.0 0.00 0.00 0.00 40 1009.0
20260504034545 44 314 0.0 2.0 0.00 0.00 0.00 40 1008.9
20260504033035 45 312 1.0 3.0 0.00 0.00 0.00 40 1008.9
20260504031544 46 311 0.0 2.0 0.00 0.00 0.00 39 1008.8
20260504030041 47 311 0.0 1.0 0.00 0.00 0.00 39 1008.8
20260504024536 49 311 0.0 0.0 0.00 0.00 0.00 38 1008.5
20260504023033 50 311 0.0 2.0 0.00 0.00 0.00 36 1008.4
20260504021541 52 302 0.0 4.0 0.00 0.00 0.00 35 1008.3
20260504020037 54 214 0.0 0.0 0.00 0.00 0.00 34 1008.2
20260504014532 54 214 0.0 0.0 0.00 0.00 0.00 32 1008.0
20260504013035 55 214 0.0 3.0 0.00 0.00 0.00 31 1008.0